Tracking 19634 objects as of 22-May-2019
HD Live streaming from Space Station
objects crossing your sky now

CORIOLIS

Track CORIOLIS now!
10-day predictions
CORIOLIS is classified as:


NORAD ID: 27640
Int'l Code: 2003-001A
Perigee: 824.8 km
Apogee: 846.9 km
Inclination: 98.7 °
Period: 101.5 minutes
Semi major axis: 7206 km
RCS: 5.5265 m2 (large)
Launch date: January 6, 2003
Source: United States (US)
Launch site: AIR FORCE WESTERN TEST RANGE (AFWTR)

Monitor ocean winds and image Solar Mass Ejections (SME).
aabbcc
Your satellite tracking list
Your tracking list is empty




NASA's NSSDC Master Catalog

Two Line Element Set (TLE):
1 27640U 03001A   19142.16049725 -.00000009  00000-0  16720-4 0  9994
2 27640  98.7324 152.4643 0015342  85.3035 316.4561 14.19008705847783
Source of the keplerian elements: AFSPC